User: anonymous   Login
Location: Dob?e?
(49.9411°N, 15.1496°E)
Time: 12:57:59
(UTC+00:00)
Language:

NOAA 18 - Orbit

View from above orbital plane
View from above orbital plane
View from above satellite
View from above satellite

Ground track
Ground track

The orbit data is extracted from the following two-line orbital elements,

1 28654U 05018A   21296.08018929  .00000105  00000-0  80870-4 0  9999
2 28654  98.9807   1.3705 0013276 282.4117  77.5568 14.12649158846555
Epoch (UTC): 23 October 2021 01:55:28
Eccentricity: 0.0013276
inclination: 98.9807°
perigee height: 841 km
apogee height: 860 km
right ascension of ascending node: 1.3705°
argument of perigee: 282.4117°
revolutions per day: 14.12649158
mean anomaly at epoch: 77.5568°
orbit number at epoch: 84655

The dashed part of the orbit path shows where the satellite is in the earth's shadow,  

DLR